星链-30926 (STARLINK-30926 )

导读 | 星芒AI

STARLINK-30926 是 SpaceX Starlink 卫星互联网项目中的一颗低轨卫星,属于第三代 Starlink(也称为 v1.5 或 Block V)系列。该卫星于 2023 年发射,旨在为全球用户提供高速、低延迟的宽带互联网服务。它运行在约 550 公里的轨道高度,配备先进通信设备和激光链路,以提高网络效率和覆盖范围。作为 Starlink 网络的一部分,STARLINK-30926 支持偏远地区的互联网接入,并增强整体系统的冗余与稳定性。

基本信息
目录编号:
58448
目录名称:
STARLINK-30926
国际标识:
2023-183M
轨道中心:
EARTH
卫星名称:
星链-30926
卫星全名:
星链-30926 (STARLINK-30926 )
卫星状态:
在轨 (已飞行752 天)
发射日期:
2023-11-28 UTC
国别 :
美国 (US)
星等 :
--
轨道信息
数据来源 国际轨道数据
星历时间: 2025-12-18T17:52:11+0800
1天前
查看轨道信息
半长轴: 6937.208km
偏心率: 0.0001392
轨道倾角: 43.004°
近地点辐角 274.485°
升交点赤经 124.428°
平近点角 85.584°
近地点: 558.107km
远地点: 560.039km
周期: 95.838分钟
每日圈数: 15.02539
详细信息
固有亮度:
5
最大亮度:
0.3
卫星平台:
Starlink v2.0 mini
覆盖范围:
全球
运营商:
太空探索技术公司
运营商所在国:
美国
制造商(研发单位):
太空探索技术公司
制造商所在国:
美国
使用方式:
暂无
卫星简介
星链(Starlink)计划是由太空探索技术公司(SpaceX)提出的一个巨型低轨卫星互联网星座项目,计划在2019年至2024年间在太空搭建由约1.2万颗卫星组成的“星链”网络,其中1584颗将部署在地球上空550千米处的近地轨道,并从2020年开始工作。该卫星仍在工作。
2D轨道图
3D轨道图
轨道高度分析图
轨道倾角分析图
轨道综合分析图
查看轨道综合分析图